Location: Hamburg
(53.5511°N, 9.9937°E)
Time: 15:57:38
(UTC+02:00)

ISS - Pass Details

Date: 15 March 2026
Orbit: 416 x 425 km, 51.6° (Epoch: 19 April)

Event Time Altitude Azimuth Distance (km) Brightness Sun altitude
Rises 19:42:58 0° 235° (SW) 2,383 0.7 -12.4°
Reaches altitude 10° 19:45:09 10° 227° (SW) 1,517 -0.5 -12.8°
Maximum altitude 19:48:19 37° 158° (SSE) 686 -3.0 -13.2°
Enters shadow 19:49:39 25° 112° (ESE) 891 -2.7 -13.4°
